Location: Nairn
(57.5833°N, 3.8667°W)
Time: 01:46:03
(UTC+00:00)

Cosmos 1437 - Pass Details

Date: 07 August 2020
Orbit: 368 x 371 km, 81.2° (Epoch: 19 September)

Event Time Altitude Azimuth Distance (km) Brightness Sun altitude
Rises 01:41:05 0° 340° (NNW) 2,241 7.3 -14.3°
Reaches altitude 10° 01:43:09 10° 332° (NNW) 1,385 6.0 -14.2°
Maximum altitude 01:45:59 40° 262° (W) 569 3.2 -14.0°
Enters shadow 01:46:51 31° 219° (SW) 686 3.3 -14.0°
